ハウエル彗星

88P/Howell (1998)

English version
Home page
Updated on May 5, 2012

---------------------------------------------------------------------

・ プロフィール

・ 写真集

・ 軌道要素

Epoch 1998 Sept. 24.0 TT = JDT 2451080.5
T 1998 Sept. 27.19159 TT                                MPC
q   1.4061374            (2000.0)            P               Q
n   0.17685295     Peri.  234.91736     +0.38190239     +0.92192868
a   3.1433628      Node    57.66050     -0.82101981     +0.37061996
e   0.5526646      Incl.    4.39818     -0.42435485     +0.11264260
P   5.57
From 1388 observations 1997 Dec. 31-2011 Feb. 6, mean residual 0".9.
     Nongravitational parameters A1 = +0.59, A2 = -0.0495.

・ 星図

・ 光度変化

        m1 =  5.5 + 5 logΔ + 25   log r(t - 33)  [   ,310]  (              〜1999年 8月 3日)
        m1 = 12.0 + 5 logΔ + 10.0 log r          [310,   ]  (1999年 8月 3日〜              )

---------------------------------------------------------------------

軌道要素はM.P.E.C. 2012-J16に掲載されたものです。
星図は StellaNavigator Ver.2.0 for Windows (アストロアーツ編著 / アスキー出版局刊) で作成したものです。
光度グラフはComet for Windowsで作成したものです。

---------------------------------------------------------------------

Copyright(C) Seiichi Yoshida (comet@aerith.net). All rights reserved.